GW4126 Weather Reports


time (UTC)temp
C
wind
direction
speed
KPH
gust
KPH
rain 1hr
cm
rain 24hr
cm
rain mn
cm
humidity
%
barometer
mb
20260906231547 15 178 8.0 14.5 0.00 0.00 0.00 80 1017.7
20260906231030 15 174 8.0 12.9 0.00 0.00 0.00 81 1017.8
20260906230530 15 138 6.4 12.9 0.00 0.00 0.00 82 1017.8
20260906230055 15 186 8.0 14.5 0.00 0.00 0.00 81 1017.8
20260906225530 15 182 8.0 14.5 0.00 0.00 0.00 81 1017.7
20260906225033 15 185 6.4 14.5 0.00 0.00 0.00 80 1017.8
20260906224552 16 166 9.7 14.5 0.00 0.00 0.00 80 1017.9
20260906224029 16 180 6.4 16.1 0.00 0.00 0.00 80 1017.9
20260906223530 16 225 8.0 16.1 0.00 0.00 0.00 81 1017.7
20260906223055 15 205 6.4 16.1 0.00 0.00 0.00 80 1017.8
20260906222528 15 220 9.7 16.1 0.00 0.00 0.00 82 1017.8
20260906222029 15 187 8.0 14.5 0.00 0.00 0.00 82 1017.9
20260906221559 15 269 8.0 14.5 0.00 0.00 0.00 81 1017.9
20260906221033 15 230 11.3 14.5 0.00 0.00 0.00 83 1017.9
20260906220529 15 256 6.4 12.9 0.00 0.00 0.00 83 1017.9
20260906220106 15 207 4.8 12.9 0.00 0.00 0.00 83 1018.0
20260906215529 15 222 4.8 12.9 0.00 0.00 0.00 83 1018.0
20260906215029 15 210 8.0 12.9 0.00 0.00 0.00 84 1018.0
20260906214559 15 230 9.7 12.9 0.00 0.00 0.00 84 1018.0
20260906214029 15 254 8.0 14.5 0.00 0.00 0.00 84 1017.9
20260906213530 14 222 8.0 14.5 0.00 0.00 0.00 84 1018.0
20260906213047 14 204 9.7 12.9 0.00 0.00 0.00 84 1018.0
20260906212528 14 228 8.0 12.9 0.00 0.00 0.00 84 1018.0
20260906212030 14 219 6.4 12.9 0.00 0.00 0.00 85 1018.1
20260906211558 14 223 9.7 14.5 0.00 0.00 0.00 84 1018.1
20260906211029 14 221 9.7 14.5 0.00 0.00 0.00 85 1018.1
20260906210529 14 200 9.7 12.9 0.00 0.00 0.00 85 1018.1
20260906210052 14 198 8.0 14.5 0.00 0.00 0.00 85 1018.2
20260906205529 14 205 9.7 14.5 0.00 0.00 0.00 85 1018.2
20260906205033 14 213 9.7 14.5 0.00 0.00 0.00 85 1018.2
20260906204551 14 223 6.4 12.9 0.00 0.00 0.00 85 1018.1
20260906204029 14 207 6.4 12.9 0.00 0.00 0.00 85 1018.1
20260906203530 14 225 8.0 11.3 0.00 0.00 0.00 85 1018.1
20260906203048 14 220 3.2 11.3 0.00 0.00 0.00 85 1018.1
20260906202530 14 217 4.8 11.3 0.00 0.00 0.00 86 1018.1
20260906202029 14 198 4.8 11.3 0.00 0.00 0.00 86 1018.1
20260906201547 14 198 6.4 11.3 0.00 0.00 0.00 86 1018.1
20260906201029 13 174 4.8 12.9 0.00 0.00 0.00 87 1018.2
20260906200529 13 174 9.7 12.9 0.00 0.00 0.00 86 1018.2
20260906200055 13 165 8.0 12.9 0.00 0.00 0.00 86 1018.3
20260906195529 13 157 8.0 12.9 0.00 0.00 0.00 86 1018.4
20260906195030 14 148 8.0 12.9 0.00 0.00 0.00 86 1018.3
20260906194551 14 163 6.4 12.9 0.00 0.00 0.00 86 1018.4
20260906194031 14 171 8.0 12.9 0.00 0.00 0.00 86 1018.4
20260906193530 14 176 8.0 12.9 0.00 0.00 0.00 87 1018.2
20260906193050 13 186 9.7 12.9 0.00 0.00 0.00 88 1018.4
20260906192530 13 190 8.0 12.9 0.00 0.00 0.00 88 1018.5
20260906192032 13 193 8.0 11.3 0.00 0.00 0.00 89 1018.5
20260906191555 13 124 8.0 14.5 0.00 0.00 0.00 88 1018.4
20260906191029 13 158 4.8 14.5 0.00 0.00 0.00 89 1018.4
20260906190532 13 196 8.0 14.5 0.00 0.00 0.00 89 1018.5
20260906190051 13 201 6.4 14.5 0.00 0.00 0.00 89 1018.5
20260906185529 13 157 9.7 14.5 0.00 0.00 0.00 89 1018.5
20260906185029 13 153 6.4 14.5 0.00 0.00 0.00 90 1018.4
20260906184558 13 177 9.7 14.5 0.00 0.00 0.00 90 1018.4
20260906184028 13 182 8.0 12.9 0.00 0.00 0.00 90 1018.4
20260906183529 13 137 9.7 12.9 0.00 0.00 0.00 90 1018.4
20260906183047 13 137 8.0 11.3 0.00 0.00 0.00 91 1018.4
20260906182529 13 168 6.4 16.1 0.00 0.00 0.00 92 1018.4
20260906182029 13 160 9.7 16.1 0.00 0.00 0.00 92 1018.5
20260906181553 13 163 8.0 12.9 0.00 0.00 0.00 93 1018.4
20260906181029 13 158 8.0 12.9 0.00 0.00 0.00 94 1018.4
20260906180529 13 123 4.8 12.9 0.00 0.00 0.00 94 1018.4
20260906180109 13 121 8.0 12.9 0.00 0.00 0.00 95 1018.4
20260906175532 12 130 6.4 9.7 0.00 0.00 0.00 95 1018.5
20260906175029 12 158 4.8 6.4 0.00 0.00 0.00 95 1018.5
20260906174548 12 107 3.2 6.4 0.00 0.00 0.00 96 1018.6
20260906174029 12 107 3.2 9.7 0.00 0.00 0.00 96 1018.7
20260906173529 12 101 4.8 9.7 0.00 0.00 0.00 96 1018.8
20260906173049 12 135 1.6 4.8 0.00 0.00 0.00 96 1018.7
20260906172528 12 135 3.2 4.8 0.00 0.00 0.00 96 1018.7
20260906172029 12 135 1.6 4.8 0.00 0.00 0.00 96 1018.9
20260906171552 12 135 3.2 4.8 0.00 0.00 0.00 96 1018.9
20260906171028 12 135 1.6 6.4 0.00 0.00 0.00 96 1018.8
20260906170529 12 135 1.6 6.4 0.00 0.00 0.00 96 1018.8
20260906170055 12 192 1.6 4.8 0.00 0.00 0.00 96 1018.8
20260906165529 12 192 0.0 3.2 0.00 0.00 0.00 96 1018.7
20260906165033 12 192 1.6 4.8 0.00 0.00 0.00 96 1018.7
20260906164549 12 192 1.6 4.8 0.00 0.00 0.00 96 1018.8
20260906164031 12 192 3.2 4.8 0.00 0.00 0.00 96 1018.8
20260906163530 12 192 1.6 4.8 0.00 0.00 0.00 96 1018.8
20260906163116 12 192 1.6 4.8 0.00 0.00 0.00 96 1018.9
20260906162531 12 192 1.6 4.8 0.00 0.00 0.00 96 1018.9
20260906162029 12 192 3.2 6.4 0.00 0.00 0.00 96 1018.8
20260906161550 12 192 1.6 6.4 0.00 0.00 0.00 96 1018.7
20260906161032 11 192 3.2 6.4 0.00 0.00 0.00 96 1018.6
20260906160529 11 192 1.6 8.0 0.00 0.00 0.00 96 1018.6
20260906160051 11 192 4.8 12.9 0.00 0.00 0.00 96 1018.7
20260906155531 11 165 6.4 12.9 0.00 0.00 0.00 96 1018.6
20260906155031 11 163 4.8 11.3 0.00 0.00 0.00 96 1018.6
20260906154545 11 174 4.8 11.3 0.00 0.00 0.00 96 1018.5
20260906154029 11 157 3.2 11.3 0.00 0.00 0.00 96 1018.5
20260906153529 11 169 8.0 12.9 0.00 0.00 0.00 96 1018.5
20260906153053 11 161 9.7 12.9 0.00 0.00 0.00 96 1018.5
20260906152528 11 150 6.4 12.9 0.00 0.00 0.00 96 1018.5
20260906152029 11 119 8.0 14.5 0.00 0.00 0.00 96 1018.4
20260906151549 11 157 9.7 14.5 0.00 0.00 0.00 96 1018.3
20260906151029 11 116 8.0 12.9 0.00 0.00 0.00 96 1018.3
20260906150529 11 169 8.0 12.9 0.00 0.00 0.00 96 1018.4
20260906150049 11 146 6.4 8.0 0.00 0.00 0.00 96 1018.5
20260906145529 11 161 6.4 12.9 0.00 0.00 0.00 96 1018.5
20260906145029 11 142 4.8 12.9 0.00 0.00 0.00 96 1018.4
20260906144554 11 144 6.4 14.5 0.00 0.00 0.00 96 1018.5
20260906144030 11 149 8.0 14.5 0.00 0.00 0.00 96 1018.5
20260906143537 11 131 8.0 14.5 0.00 0.00 0.00 96 1018.5
20260906143054 11 152 8.0 12.9 0.00 0.00 0.00 96 1018.4
20260906142529 11 132 4.8 12.9 0.00 0.00 0.00 96 1018.3
20260906142029 11 124 6.4 14.5 0.00 0.00 0.00 96 1018.3
20260906141547 11 114 8.0 14.5 0.00 0.00 0.00 96 1018.2
20260906141029 11 146 11.3 14.5 0.00 0.00 0.00 96 1018.3
20260906140531 11 136 8.0 14.5 0.00 0.00 0.00 96 1018.3
20260906140054 11 125 8.0 12.9 0.00 0.00 0.00 96 1018.3
20260906135529 11 151 6.4 12.9 0.00 0.00 0.00 96 1018.3
20260906135030 11 115 9.7 12.9 0.00 0.00 0.00 96 1018.3
20260906134551 11 128 4.8 11.3 0.00 0.00 0.00 96 1018.4
20260906134029 11 106 4.8 14.5 0.00 0.00 0.00 96 1018.4
20260906133528 11 114 8.0 14.5 0.00 0.00 0.00 96 1018.4
20260906133056 11 101 6.4 16.1 0.00 0.00 0.00 96 1018.3
20260906132529 11 157 9.7 17.7 0.00 0.00 0.00 96 1018.2
20260906132029 11 120 8.0 17.7 0.00 0.00 0.00 96 1018.3
20260906131608 11 153 12.9 17.7 0.00 0.00 0.00 96 1018.2
20260906131029 11 156 11.3 16.1 0.00 0.00 0.00 96 1018.4
20260906130531 11 144 8.0 14.5 0.00 0.00 0.00 96 1018.3
20260906130104 11 146 8.0 14.5 0.00 0.00 0.00 96 1018.4
20260906125529 11 130 8.0 14.5 0.00 0.00 0.00 96 1018.3
20260906125032 11 148 6.4 14.5 0.00 0.00 0.00 96 1018.3
20260906124554 11 122 6.4 12.9 0.00 0.00 0.00 96 1018.3
20260906124029 11 126 8.0 16.1 0.00 0.00 0.00 96 1018.4
20260906123529 11 107 9.7 16.1 0.00 0.00 0.00 96 1018.4
20260906123052 11 128 11.3 17.7 0.00 0.00 0.00 96 1018.4
20260906122529 11 124 9.7 19.3 0.00 0.00 0.00 96 1018.3
20260906122028 11 103 9.7 19.3 0.00 0.00 0.00 96 1018.3
20260906121549 10 360 14.5 27.4 0.00 0.00 0.00 95 1018.1
20260906121032 10 124 16.1 30.6 0.00 0.00 0.00 96 1018.1
20260906120530 10 119 17.7 30.6 0.00 0.00 0.00 96 1017.9
20260906120059 10 144 20.9 29.0 0.00 0.00 0.00 95 1017.8
20260906115529 10 145 19.3 29.0 0.00 0.00 0.00 95 1017.7
20260906115028 11 140 17.7 27.4 0.00 0.00 0.00 95 1017.7
20260906114551 11 158 17.7 25.7 0.00 0.00 0.00 95 1017.7
20260906114028 11 136 17.7 25.7 0.00 0.00 0.00 95 1017.7
20260906113528 11 154 19.3 25.7 0.00 0.00 0.00 95 1017.7
20260906113049 11 150 16.1 25.7 0.00 0.00 0.00 95 1017.8
20260906112528 11 160 17.7 24.1 0.00 0.00 0.00 95 1017.7
20260906112029 11 150 17.7 24.1 0.00 0.00 0.00 95 1017.7
20260906111543 11 144 16.1 27.4 0.00 0.00 0.00 95 1017.7
20260906111029 11 138 17.7 27.4 0.00 0.00 0.00 95 1017.6
20260906110529 11 141 14.5 22.5 0.00 0.00 0.00 95 1017.6
20260906110050 11 132 14.5 20.9 0.00 0.00 0.00 95 1017.7
20260906105531 11 147 12.9 24.1 0.00 0.00 0.00 95 1017.7
20260906105029 11 145 14.5 24.1 0.00 0.00 0.00 95 1017.6
20260906104548 11 142 14.5 20.9 0.00 0.00 0.00 95 1017.6
20260906104030 11 135 16.1 20.9 0.00 0.00 0.00 95 1017.5
20260906103528 11 137 14.5 20.9 0.00 0.00 0.00 95 1017.6
20260906103048 11 130 14.5 17.7 0.00 0.00 0.00 95 1017.6
20260906102530 11 121 12.9 17.7 0.00 0.00 0.00 95 1017.5
20260906102029 11 146 11.3 19.3 0.00 0.00 0.00 95 1017.5
20260906101552 11 146 16.1 19.3 0.00 0.00 0.00 95 1017.4
20260906101029 11 136 9.7 19.3 0.00 0.00 0.00 94 1017.5
20260906100532 11 150 9.7 19.3 0.00 0.00 0.00 94 1017.6
20260906100050 11 116 11.3 19.3 0.00 0.00 0.00 94 1017.7
20260906095530 11 140 11.3 19.3 0.00 0.00 0.00 94 1017.5
20260906095029 11 143 11.3 19.3 0.00 0.00 0.00 94 1017.5
20260906094549 12 144 12.9 19.3 0.00 0.00 0.00 94 1017.3
20260906094030 12 149 6.4 17.7 0.00 0.00 0.00 94 1017.3
20260906093532 12 142 12.9 25.7 0.00 0.00 0.00 94 1017.2
20260906093056 12 153 12.9 25.7 0.00 0.00 0.00 94 1017.0
20260906092533 12 136 16.1 24.1 0.00 0.00 0.00 94 1017.0
20260906092031 12 146 17.7 24.1 0.00 0.00 0.00 93 1016.8
20260906091555 12 144 14.5 20.9 0.00 0.00 0.00 94 1016.9
20260906091029 12 136 9.7 14.5 0.00 0.00 0.00 94 1016.9
20260906090529 12 142 9.7 12.9 0.00 0.00 0.00 93 1017.0
20260906090055 12 150 9.7 14.5 0.00 0.00 0.00 93 1017.0
20260906085531 12 157 9.7 14.5 0.00 0.00 0.00 93 1017.0
20260906085028 12 153 9.7 14.5 0.00 0.00 0.00 93 1017.0
20260906084554 12 153 8.0 14.5 0.00 0.00 0.00 93 1017.0
20260906084030 12 179 8.0 14.5 0.00 0.00 0.00 93 1017.0
20260906083529 12 143 9.7 14.5 0.00 0.00 0.00 93 1017.0
20260906083048 12 146 8.0 16.1 0.00 0.00 0.00 93 1017.0
20260906082529 12 136 9.7 16.1 0.00 0.00 0.00 93 1016.9
20260906082029 12 148 8.0 14.5 0.00 0.00 0.00 93 1016.9
20260906081554 12 152 9.7 14.5 0.00 0.00 0.00 92 1016.8
20260906081029 12 150 8.0 12.9 0.00 0.00 0.00 92 1016.8
20260906080527 12 155 6.4 11.3 0.00 0.00 0.00 92 1016.8
20260906080058 11 182 3.2 8.0 0.00 0.00 0.00 92 1016.8
20260906075528 11 182 3.2 6.4 0.00 0.00 0.00 92 1016.8
20260906075029 11 182 3.2 8.0 0.00 0.00 0.00 92 1016.8
20260906074557 11 182 4.8 8.0 0.00 0.00 0.00 91 1016.7
20260906074029 11 181 4.8 8.0 0.00 0.00 0.00 91 1016.6
20260906073528 11 182 3.2 4.8 0.00 0.00 0.00 90 1016.6
20260906073051 11 182 3.2 4.8 0.00 0.00 0.00 90 1016.6
20260906072530 11 181 3.2 4.8 0.00 0.00 0.00 90 1016.6
20260906072031 11 182 3.2 4.8 0.00 0.00 0.00 90 1016.7
20260906071555 11 182 4.8 4.8 0.00 0.00 0.00 90 1016.6
20260906071030 11 182 3.2 3.2 0.00 0.00 0.00 89 1016.7
20260906070529 11 182 1.6 3.2 0.00 0.00 0.00 89 1016.7
20260906070051 11 182 1.6 3.2 0.00 0.00 0.00 88 1016.6
20260906065531 11 181 1.6 3.2 0.00 0.00 0.00 88 1016.7
20260906065029 11 182 1.6 3.2 0.00 0.00 0.00 88 1016.6
20260906064548 12 182 1.6 3.2 0.00 0.00 0.00 88 1016.7
20260906064029 12 182 0.0 3.2 0.00 0.00 0.00 87 1016.6
20260906063533 12 181 1.6 3.2 0.00 0.00 0.00 87 1016.7
20260906063052 12 182 1.6 1.6 0.00 0.00 0.00 87 1016.6
20260906062531 12 182 1.6 3.2 0.00 0.00 0.00 87 1016.7
20260906062029 12 182 0.0 3.2 0.00 0.00 0.00 87 1016.7
20260906061549 12 182 0.0 3.2 0.00 0.00 0.00 87 1016.6
20260906061028 12 182 0.0 3.2 0.00 0.00 0.00 87 1016.6
20260906060529 12 0 0.0 0.0 0.00 0.00 0.00 87 1016.7
20260906060058 12 0 0.0 0.0 0.00 0.00 0.00 86 1016.6
20260906055529 12 0 0.0 0.0 0.00 0.00 0.00 86 1016.6
20260906055032 12 0 0.0 0.0 0.00 0.00 0.00 86 1016.7
20260906054555 12 0 0.0 3.2 0.00 0.00 0.00 86 1016.6
20260906054029 12 0 0.0 3.2 0.00 0.00 0.00 86 1016.6
20260906053528 12 182 1.6 1.6 0.00 0.00 0.00 85 1016.6
20260906053049 12 182 1.6 1.6 0.00 0.00 0.00 85 1016.6
20260906052531 13 0 0.0 3.2 0.00 0.00 0.00 84 1016.5
20260906052030 13 0 0.0 3.2 0.00 0.00 0.00 84 1016.4
20260906051554 13 181 1.6 3.2 0.00 0.00 0.00 83 1016.3
20260906051029 13 182 3.2 3.2 0.00 0.00 0.00 83 1016.3
20260906050529 13 182 0.0 1.6 0.00 0.00 0.00 82 1016.3
20260906050055 13 0 0.0 0.0 0.00 0.00 0.00 82 1016.3
20260906045532 13 0 0.0 0.0 0.00 0.00 0.00 82 1016.3
20260906045029 14 0 0.0 0.0 0.00 0.00 0.00 81 1016.3
20260906044553 14 0 0.0 0.0 0.00 0.00 0.00 80 1016.4
20260906044032 14 0 0.0 0.0 0.00 0.00 0.00 80 1016.3
20260906043528 15 0 0.0 0.0 0.00 0.00 0.00 79 1016.3
20260906043048 15 0 0.0 0.0 0.00 0.00 0.00 79 1016.3
20260906042529 15 0 0.0 0.0 0.00 0.00 0.00 77 1016.4
20260906042028 15 0 0.0 0.0 0.00 0.00 0.00 77 1016.4
20260906041549 15 0 0.0 3.2 0.00 0.00 0.00 75 1016.5
20260906041030 15 0 0.0 3.2 0.00 0.00 0.00 74 1016.5
20260906040529 16 0 0.0 3.2 0.00 0.00 0.00 73 1016.6
20260906040053 16 182 0.0 3.2 0.00 0.00 0.00 73 1016.6
20260906035530 16 182 0.0 1.6 0.00 0.00 0.00 72 1016.6
20260906035030 16 0 0.0 1.6 0.00 0.00 0.00 70 1016.5
20260906034551 16 182 0.0 3.2 0.00 0.00 0.00 70 1016.6
20260906034034 17 182 0.0 3.2 0.00 0.00 0.00 70 1016.5
20260906033528 17 0 0.0 3.2 0.00 0.00 0.00 70 1016.6
20260906033048 17 0 0.0 3.2 0.00 0.00 0.00 68 1016.5
20260906032529 17 0 0.0 3.2 0.00 0.00 0.00 67 1016.5
20260906032029 18 0 0.0 3.2 0.00 0.00 0.00 67 1016.5
20260906031549 18 182 1.6 3.2 0.00 0.00 0.00 66 1016.5
20260906031033 18 182 0.0 3.2 0.00 0.00 0.00 64 1016.5
20260906030528 18 0 0.0 3.2 0.00 0.00 0.00 63 1016.5
20260906030052 18 182 3.2 3.2 0.00 0.00 0.00 60 1016.4
20260906025529 18 182 0.0 3.2 0.00 0.00 0.00 62 1016.5
20260906025029 18 182 1.6 4.8 0.00 0.00 0.00 60 1016.5
20260906024548 18 182 3.2 4.8 0.00 0.00 0.00 59 1016.4
20260906024029 18 182 1.6 3.2 0.00 0.00 0.00 59 1016.5
20260906023529 19 182 1.6 3.2 0.00 0.00 0.00 57 1016.3
20260906023052 19 182 1.6 3.2 0.00 0.00 0.00 57 1016.4
20260906022529 19 182 1.6 4.8 0.00 0.00 0.00 56 1016.4
20260906022037 19 182 3.2 6.4 0.00 0.00 0.00 55 1016.4
20260906021557 19 182 4.8 6.4 0.00 0.00 0.00 56 1016.4
20260906021028 19 182 3.2 6.4 0.00 0.00 0.00 57 1016.3
20260906020529 19 182 3.2 6.4 0.00 0.00 0.00 56 1016.4
20260906020048 20 209 3.2 6.4 0.00 0.00 0.00 57 1016.4
20260906015533 20 209 4.8 6.4 0.00 0.00 0.00 58 1016.6
20260906015029 20 209 3.2 6.4 0.00 0.00 0.00 57 1016.5
20260906014549 20 209 3.2 6.4 0.00 0.00 0.00 58 1016.5
20260906014031 20 209 4.8 6.4 0.00 0.00 0.00 58 1016.5
20260906013530 20 198 3.2 8.0 0.00 0.00 0.00 58 1016.6
20260906013050 20 198 6.4 8.0 0.00 0.00 0.00 57 1016.5
20260906012530 20 194 4.8 8.0 0.00 0.00 0.00 57 1016.6
20260906012033 20 201 3.2 8.0 0.00 0.00 0.00 57 1016.5
20260906011602 20 199 4.8 8.0 0.00 0.00 0.00 58 1016.6
20260906011028 20 199 3.2 9.7 0.00 0.00 0.00 58 1016.4
20260906010529 21 198 3.2 9.7 0.00 0.00 0.00 58 1016.5
20260906010051 21 223 4.8 9.7 0.00 0.00 0.00 57 1016.6
20260906005529 21 261 3.2 6.4 0.00 0.00 0.00 54 1016.5
20260906005034 21 261 4.8 8.0 0.00 0.00 0.00 53 1016.5
20260906004554 21 235 3.2 8.0 0.00 0.00 0.00 55 1016.6
20260906004031 21 219 4.8 8.0 0.00 0.00 0.00 56 1016.5
20260906003532 21 226 4.8 8.0 0.00 0.00 0.00 57 1016.6
20260906003050 21 224 4.8 8.0 0.00 0.00 0.00 57 1016.5
20260906002528 21 269 3.2 8.0 0.00 0.00 0.00 54 1016.5
20260906002029 21 249 4.8 8.0 0.00 0.00 0.00 54 1016.5
20260906001553 22 271 3.2 8.0 0.00 0.00 0.00 54 1016.6
20260906001033 22 244 4.8 9.7 0.00 0.00 0.00 53 1016.5
20260906000533 22 229 4.8 9.7 0.00 0.00 0.00 55 1016.6
20260906000051 22 238 6.4 11.3 0.00 0.00 0.00 56 1016.6
20260905235529 22 229 6.4 11.3 0.00 0.00 0.00 55 1016.7
20260905235029 22 228 6.4 9.7 0.00 0.00 0.00 54 1016.5
20260905234555 23 255 4.8 9.7 0.00 0.00 0.00 55 1016.6
20260905234033 23 209 6.4 9.7 0.00 0.00 0.00 53 1016.6
20260905233529 23 248 4.8 9.7 0.00 0.00 0.00 52 1016.6
20260905233105 23 209 6.4 9.7 0.00 0.00 0.00 52 1016.7
20260905232529 23 255 6.4 9.7 0.00 0.00 0.00 51 1016.7
20260905232028 24 217 4.8 11.3 0.00 0.00 0.00 52 1016.8